Regional Weather Roundup
Issued by NWS Upton, NY

Current Version | Previous Version | Text Only | Print | Product List | Glossary On
Versions: 1 2 3 4 5 6 7 8 9 10 11 12 13 14 15 16 17 18 19 20 21 22 23 24 25 26 27 28 29 30 31 32 33 34 35
000
ASUS41 KOKX 221005
RWROKX

REGIONAL WEATHER ROUNDUP
NATIONAL WEATHER SERVICE NEW YORK NY
600 AM EDT WED OCT 22 2014

NOTE: "FAIR" INDICATES FEW OR NO CLOUDS BELOW 12,000 FEET WITH NO
SIGNIFICANT WEATHER AND/OR OBSTRUCTIONS TO VISIBILITY.

NYZ071-072-176-178-NJZ106-104-221100-
NEW YORK CITY METRO AREA


CITY           SKY/WX    TMP DP  RH WIND       PRES   REMARKS
CENTRAL PARK   HVY RAIN  55  53  93 E6        29.93R FOG
LAGUARDIA APRT TSTM      55  52  88 N13       29.89S
KENNEDY INTL   TSTM      57  53  86 N15       29.89R
NEWARK/LIBERTY LGT RAIN  56  54  93 NE12      29.89R
BRNX BOT. GARD   N/A     54  52  94 N6        29.91S
TETERBORO      LGT RAIN  56  52  86 N8        29.90R
$$

NYZ177-179-078>081-221100-
LONG ISLAND NEW YORK

CITY           SKY/WX    TMP DP  RH WIND       PRES   REMARKS
FARMINGDALE    CLOUDY    57  53  86 NE13G22   29.88R
ISLIP          CLOUDY    57  54  89 NE16G23   29.86S
SHIRLEY        CLOUDY    58  54  86 NE8       29.89R
WESTHAMPTON    CLOUDY    58  54  86 NE17G23   29.89R
MONTAUK POINT    N/A     57  54  89 N13G21    29.92S
$$

NYZ052-065-067-221100-
HUDSON VALLEY

CITY           SKY/WX    TMP DP  RH WIND       PRES   REMARKS
WHITE PLAINS   CLOUDY    54  51  90 N8        29.91R
NEWBURGH       NOT AVBL
MONTGOMERY     LGT RAIN  51  48  89 NE15      29.94S
POUGHKEEPSIE   CLOUDY    52  48  86 N9        29.96R
ALBANY         CLOUDY    50  45  83 N10       30.04R
$$

NJZ001-105-106-008-010-013-015-019>022-104-221100-
NEW JERSEY

CITY           SKY/WX    TMP DP  RH WIND       PRES   REMARKS
NEWARK/LIBERTY LGT RAIN  56  54  93 NE12      29.89R
TETERBORO      LGT RAIN  56  52  86 N8        29.90R
CALDWELL       LGT RAIN  54  51  90 NE6       29.92R
MORRISTOWN     LGT RAIN  55  52  88 NE8       29.90S
SOMERVILLE     LGT RAIN  57  52  83 N8        29.87R
SUSSEX         LGT RAIN  54  49  83 NE10      29.94R
ANDOVER          N/A     51  50  96 NE7       29.92R
TRENTON        CLOUDY    56  52  86 NE12      29.86S
MILLVILLE      CLOUDY    56  53  90 N7        29.81R
ATLANTIC CITY  CLOUDY    54  53  97 NE12      29.80R
WRIGHTSTOWN    LGT RAIN  55  54  99 NE7       29.84R
TOMS RIVER     CLOUDY    55  54  94 CALM      29.87R
BELMAR         CLOUDY    54  48  82 N15G23    29.84F
$$

PAZ047>061-062-071-221100-
EASTERN PENNSYLVANIA

CITY           SKY/WX    TMP DP  RH WIND       PRES   REMARKS
PHILADELPHIA   LGT RAIN  56  52  86 N14       29.84S
ALLENTOWN      CLOUDY    55  50  83 NE10      29.90R
SCRANTON       CLOUDY    51  48  89 NE6       29.95R
$$

CTZ002-004>006-009-010-012-RIZ004-006-007-MAZ004-011-015-221100-
SOUTHERN NEW ENGLAND
 IN CT

CITY           SKY/WX    TMP DP  RH WIND       PRES   REMARKS
BRADLEY INTL   CLOUDY    54  47  77 N15       29.97R
HARTFORD       CLOUDY    53  48  83 N14       29.96S
DANBURY        CLOUDY    53  32  44 NE13G21   29.94R
WTRBRY/OXFORD  CLOUDY    52  45  76 NE12G23   29.93S
BRIDGEPORT     CLOUDY    56  51  84 NE13G23   29.92R
MERIDEN        CLOUDY    53  49  86 N12G21    29.94R
NEW HAVEN      CLOUDY    56  51  84 NE14      29.92R
CHESTER        CLOUDY    54  50  87 NE7       29.93S
GROTON         CLOUDY    54  51  90 NE12      29.92S
WILLIMANTIC    CLOUDY    53  48  83 N13       29.96S

 IN RI

CITY           SKY/WX    TMP DP  RH WIND       PRES   REMARKS
PROVIDENCE     CLOUDY    52  50  93 N13       29.97R
BLOCK ISLAND   CLOUDY    55  52  88 NE17G28   29.91F
WESTERLY       CLOUDY    54  51  90 N10G22    29.93S

 IN MA

CITY           SKY/WX    TMP DP  RH WIND       PRES   REMARKS
BOSTON         CLOUDY    53  51  93 N9        29.98S
WORCESTER      LGT RAIN  47  46  97 NE10G18   29.99R VSB 1/2
WESTFIELD      CLOUDY    52  47  83 N14G21    29.98F
PROVINCETOWN   CLOUDY    57  54  88 NE14G20   29.96R
NANTUCKET      CLOUDY    57  56  96 NE14      29.90S
$$

ANZ330-335-338-340-345-350-353-355-221100-
COASTAL MARINE OBSERVATIONS


STATION/POSITION TIME  SKY/WX   TEMP    WIND        PRES    VSBY  WAVE
                                AIR SEA DIR/SP/G                  HT/PER
                 (UTC)          (F)     (DEG/KT/KT) (MB)    (MI)  (FT/S)
NY HARB ENTRANCE NOT AVBL
4S FIRE IS       1000               63                N/A           5/ 5
20S FIRE ISLAND  1000            62 64   60/ 23/ 27 1009.0          6/ 5
23SW MTP         1000                                 N/A           5/ 5
HUDSON CANYON    1000            66 66   90/ 16/ 19 1007.9          5/ 8
EXECUTION ROCKS  1000            58 63   30/ 16/ 21   N/A
WESTERN LI SOUND 1000            58      40/ 16/ 19   N/A           2/ 4
CENTRAL LI SOUND 0900            57 64   50/ 19/ 25   N/A           2/ 4
EASTERN LI SOUND 0900            57 63   40/ 14/ 19   N/A
ROBBINS REEF     1000            58      50/ 18/ 20 1010.5
$$


>>>>>>>>>>>>>>>>>>>>>>>>>>>> KEY <<<<<<<<<<<<<<<<<<<<<<<<<<<
>                                                          <
>     SKY/WX - SKY CONDITION/PRESENT WEATHER               <
>     TMP    - TEMPERATURE IN FAHRENHEIT                   <
>     DP     - DEWPOINT IN FAHRENHEIT                      <
>     RH     - RELATIVE HUMIDITY IN PERCENT                <
>     WIND   - DIRECTION AND SPEED IN MPH                  <
>     PRES   - MEAN SEA LEVEL PRESSURE IN INCHES OF HG     <
>     WCI    - WIND CHILL INDEX                            <
>     VSB    - VISIBILITY IN MILES                         <
>     HX     - HEAT INDEX                                  <
>     TC     - TEMPERATURE IN CELSIUS                      <
>     VRB    - VARIABLE WIND DIRECTION                     <
>                                                          <
>>>>>>>>>>>>>>>>>>>>>>>>>>>> KEY <<<<<<<<<<<<<<<<<<<<<<<<<<<





USA.gov is the U.S. government's official web portal to all federal, state and local government web resources and services.